EN

Hourly Weather Tochilino 2-e

Today, 13 May, Thursday

Time Temperature Precipitation Wind Pressure Humidity
00:00 +10°C° 0.3 mm 5 mps 742 mmHg 94%
01:00 +10°C° 0.3 mm 4 mps 742 mmHg 94%
02:00 +7°C° 0.3 mm 4 mps 743 mmHg 93%
03:00 +7°C° 0 mm 4 mps 743 mmHg 94%
04:00 +7°C° 0 mm 3 mps 743 mmHg 94%
05:00 +7°C° 0 mm 3 mps 743 mmHg 94%
06:00 +8°C° 0 mm 3 mps 743 mmHg 89%
07:00 +10°C° 0 mm 4 mps 743 mmHg 84%
08:00 +11°C° 0 mm 4 mps 743 mmHg 78%
09:00 +12°C° 0.1 mm 5 mps 743 mmHg 75%
10:00 +13°C° 0.1 mm 5 mps 742 mmHg 71%
11:00 +14°C° 0.1 mm 5 mps 742 mmHg 67%
12:00 +13°C° 0.7 mm 5 mps 742 mmHg 73%
13:00 +12°C° 0.7 mm 5 mps 742 mmHg 80%
14:00 +10°C° 0.7 mm 5 mps 741 mmHg 87%
15:00 +12°C° 0.4 mm 4 mps 741 mmHg 85%
16:00 +12°C° 0.4 mm 4 mps 741 mmHg 84%
17:00 +12°C° 0.4 mm 4 mps 741 mmHg 82%
18:00 +11°C° 0.2 mm 3 mps 741 mmHg 86%
19:00 +10°C° 0.2 mm 3 mps 741 mmHg 90%
20:00 +8°C° 0.2 mm 2 mps 741 mmHg 93%
21:00 +8°C° 0 mm 2 mps 741 mmHg 94%
22:00 +8°C° 0 mm 2 mps 741 mmHg 95%
23:00 +7°C° 0 mm 2 mps 741 mmHg 96%

Tomorrow, 14 May, Friday

Time Temperature Precipitation Wind Pressure Humidity
00:00 +7°C° 0 mm 2 mps 741 mmHg 96%
01:00 +7°C° 0 mm 2 mps 741 mmHg 96%
02:00 +6°C° 0 mm 2 mps 741 mmHg 96%
03:00 +7°C° 0 mm 2 mps 741 mmHg 95%
04:00 +7°C° 0 mm 3 mps 741 mmHg 94%
05:00 +8°C° 0 mm 3 mps 741 mmHg 93%
06:00 +9°C° 0 mm 3 mps 741 mmHg 89%
07:00 +10°C° 0 mm 4 mps 741 mmHg 84%
08:00 +12°C° 0 mm 4 mps 741 mmHg 80%
09:00 +13°C° 0 mm 4 mps 741 mmHg 75%
10:00 +14°C° 0 mm 4 mps 741 mmHg 70%
11:00 +15°C° 0 mm 4 mps 741 mmHg 65%
12:00 +17°C° 0 mm 4 mps 741 mmHg 62%
13:00 +18°C° 0 mm 3 mps 740 mmHg 60%
14:00 +19°C° 0 mm 3 mps 740 mmHg 57%
15:00 +19°C° 0.2 mm 3 mps 739 mmHg 62%
16:00 +19°C° 0.2 mm 3 mps 739 mmHg 67%
17:00 +19°C° 0.2 mm 3 mps 739 mmHg 71%
18:00 +17°C° 0 mm 3 mps 738 mmHg 79%
19:00 +16°C° 0 mm 2 mps 738 mmHg 87%
20:00 +14°C° 0 mm 2 mps 737 mmHg 96%
21:00 +14°C° 0.8 mm 2 mps 737 mmHg 96%
22:00 +14°C° 0.8 mm 2 mps 737 mmHg 97%
23:00 +14°C° 0.8 mm 2 mps 737 mmHg 98%

Day after tomorrow, 15 May, Saturday

Time Temperature Precipitation Wind Pressure Humidity
00:00 +13°C° 0.1 mm 2 mps 736 mmHg 98%
01:00 +13°C° 0.1 mm 2 mps 736 mmHg 98%
02:00 +12°C° 0.1 mm 2 mps 736 mmHg 98%
03:00 +13°C° 0 mm 2 mps 736 mmHg 98%
04:00 +12°C° 0 mm 3 mps 736 mmHg 97%
05:00 +12°C° 0 mm 3 mps 736 mmHg 97%
06:00 +13°C° 0.1 mm 3 mps 736 mmHg 92%
07:00 +16°C° 0.1 mm 3 mps 736 mmHg 87%
08:00 +17°C° 0.1 mm 4 mps 736 mmHg 82%
09:00 +17°C° 0.6 mm 4 mps 736 mmHg 82%
10:00 +17°C° 0.6 mm 4 mps 736 mmHg 82%
11:00 +16°C° 0.6 mm 5 mps 736 mmHg 82%
12:00 +16°C° 0.4 mm 5 mps 736 mmHg 79%
13:00 +17°C° 0.4 mm 5 mps 736 mmHg 76%
14:00 +17°C° 0.4 mm 5 mps 737 mmHg 73%
15:00 +17°C° 0.3 mm 4 mps 737 mmHg 76%
16:00 +17°C° 0.3 mm 4 mps 737 mmHg 79%
17:00 +17°C° 0.3 mm 4 mps 737 mmHg 82%
18:00 +14°C° 0.1 mm 3 mps 737 mmHg 87%
19:00 +13°C° 0.1 mm 3 mps 738 mmHg 91%
20:00 +13°C° 0.1 mm 2 mps 738 mmHg 95%
21:00 +13°C° 0 mm 2 mps 738 mmHg 96%
22:00 +12°C° 0 mm 2 mps 738 mmHg 96%
23:00 +12°C° 0 mm 2 mps 738 mmHg 96%

16 May, Sunday

Time Temperature Precipitation Wind Pressure Humidity
00:00 +11°C° 0 mm 1 mps 739 mmHg 97%
01:00 +11°C° 0 mm 1 mps 739 mmHg 97%
02:00 +11°C° 0 mm 1 mps 739 mmHg 97%
03:00 +11°C° 0 mm 1 mps 739 mmHg 96%
04:00 +11°C° 0 mm 1 mps 740 mmHg 96%
05:00 +11°C° 0 mm 1 mps 740 mmHg 96%
06:00 +13°C° 0 mm 1 mps 740 mmHg 91%
07:00 +15°C° 0 mm 1 mps 740 mmHg 86%
08:00 +16°C° 0 mm 1 mps 741 mmHg 81%
09:00 +18°C° 0.4 mm 1 mps 741 mmHg 77%
10:00 +19°C° 0.4 mm 1 mps 741 mmHg 72%
11:00 +20°C° 0.4 mm 1 mps 741 mmHg 68%
12:00 +20°C° 0.5 mm 1 mps 741 mmHg 67%
13:00 +20°C° 0.5 mm 2 mps 741 mmHg 66%
14:00 +20°C° 0.5 mm 2 mps 741 mmHg 65%
15:00 +19°C° 0.2 mm 2 mps 741 mmHg 68%
16:00 +19°C° 0.2 mm 2 mps 741 mmHg 71%
17:00 +19°C° 0.2 mm 2 mps 741 mmHg 74%
18:00 +17°C° 0 mm 2 mps 741 mmHg 79%
19:00 +16°C° 0 mm 1 mps 742 mmHg 84%
20:00 +14°C° 0 mm 1 mps 742 mmHg 89%
21:00 +14°C° 0 mm 1 mps 742 mmHg 90%
22:00 +14°C° 0 mm 1 mps 742 mmHg 90%
23:00 +13°C° 0 mm 2 mps 742 mmHg 91%

17 May, Monday

Time Temperature Precipitation Wind Pressure Humidity
00:00 +13°C° 0 mm 2 mps 742 mmHg 91%
01:00 +13°C° 0 mm 2 mps 742 mmHg 91%
02:00 +13°C° 0 mm 2 mps 742 mmHg 91%
03:00 +13°C° 0 mm 2 mps 742 mmHg 90%
04:00 +13°C° 0 mm 2 mps 742 mmHg 89%
05:00 +14°C° 0 mm 2 mps 742 mmHg 89%
06:00 +14°C° 0 mm 3 mps 742 mmHg 82%
07:00 +17°C° 0 mm 3 mps 742 mmHg 76%
08:00 +19°C° 0 mm 4 mps 742 mmHg 69%
09:00 +20°C° 0 mm 4 mps 741 mmHg 66%
10:00 +21°C° 0 mm 4 mps 741 mmHg 62%
11:00 +23°C° 0 mm 4 mps 741 mmHg 58%
12:00 +23°C° 0 mm 5 mps 740 mmHg 57%
13:00 +25°C° 0 mm 5 mps 740 mmHg 55%
14:00 +26°C° 0 mm 6 mps 739 mmHg 54%
15:00 +26°C° 0 mm 6 mps 739 mmHg 57%
16:00 +26°C° 0 mm 6 mps 738 mmHg 61%
17:00 +24°C° 0 mm 6 mps 738 mmHg 64%
18:00 +23°C° 0.1 mm 5 mps 737 mmHg 69%
19:00 +22°C° 0.1 mm 5 mps 737 mmHg 74%
20:00 +21°C° 0.1 mm 5 mps 737 mmHg 79%
21:00 +20°C° 0 mm 5 mps 737 mmHg 80%
22:00 +19°C° 0 mm 5 mps 737 mmHg 81%
23:00 +17°C° 0 mm 5 mps 737 mmHg 82%

18 May, Tuesday

Time Temperature Precipitation Wind Pressure Humidity
00:00 +17°C° 0 mm 4 mps 736 mmHg 83%
01:00 +17°C° 0 mm 4 mps 736 mmHg 84%
02:00 +17°C° 0 mm 4 mps 736 mmHg 86%
03:00 +17°C° 0.1 mm 4 mps 736 mmHg 86%
04:00 +17°C° 0.1 mm 4 mps 735 mmHg 87%
05:00 +17°C° 0.1 mm 4 mps 735 mmHg 87%
06:00 +17°C° 0.4 mm 4 mps 736 mmHg 88%
07:00 +18°C° 0.4 mm 4 mps 736 mmHg 89%
08:00 +19°C° 0.4 mm 4 mps 736 mmHg 89%
09:00 +19°C° 0.3 mm 4 mps 736 mmHg 89%
10:00 +19°C° 0.3 mm 4 mps 737 mmHg 89%
11:00 +19°C° 0.3 mm 4 mps 737 mmHg 88%
12:00 +19°C° 1.3 mm 4 mps 737 mmHg 88%
13:00 +19°C° 1.3 mm 4 mps 738 mmHg 88%
14:00 +18°C° 1.3 mm 3 mps 738 mmHg 88%
15:00 +19°C° 0.2 mm 3 mps 738 mmHg 86%
16:00 +19°C° 0.2 mm 3 mps 738 mmHg 84%
17:00 +19°C° 0.2 mm 2 mps 738 mmHg 81%
18:00 +18°C° 0.1 mm 2 mps 739 mmHg 86%
19:00 +17°C° 0.1 mm 2 mps 739 mmHg 90%
20:00 +15°C° 0.1 mm 2 mps 739 mmHg 95%
21:00 +15°C° 0 mm 2 mps 740 mmHg 95%
22:00 +14°C° 0 mm 1 mps 740 mmHg 96%
23:00 +14°C° 0 mm 1 mps 741 mmHg 96%
Show more

We Need Your Consent

Meteoprog and our Service Providers may store and access personal data such as cookies, device identifiers or other similar technologies on your device and process such data to personalise content and ads, as well as provide social media features and to analyse the traffic.

  • Store and/or access information on your device

    Cookies, device identifiers or other information can be stored or accessed on your device for the purposes indicated above.

  • Personalised ads and content, ad and content measurement, audience insights, and products development

    Ads and content can be personalised based on a profile. More data can be added to better personalise ads and content. Ad and content performance can be measured. Insights about the audience who saw the ads and content can be derived. Such data can be used to develop or improve user’s experience, systems and software.

By clicking ‘I Agree’ you will allow the use of indicated cookies, device identifiers, web beacons or other similar technologies. Your settings can be changed in the browser on your device.

For certain purposes, legitimate interests may be relied on, rather than consent. You can read more about this in our Privacy and Cookie Policy.